CW5272 Weather Reports


Display with metric or nautical units.
time (UTC)temp
F
wind
direction
speed
MPH
gust
MPH
rain 1hr
in
rain 24hr
in
rain mn
in
humidity
%
barometer
mb
20181114062402 60 254 3.0 3.0 0.00 0.00 0.00 24 1025.8
20181114052402 60 255 0.0 0.0 0.00 0.00 0.00 27 1025.8
20181114051402 60 255 0.0 0.0 0.00 0.00 0.00 27 1025.8
20181114050402 60 255 0.0 0.0 0.00 0.00 0.00 27 1025.8
20181114045402 60 255 0.0 0.0 0.00 0.00 0.00 27 1025.7
20181114044402 60 254 0.0 0.0 0.00 0.00 0.00 27 1025.5
20181114043402 60 254 0.0 0.0 0.00 0.00 0.00 27 1025.5
20181114041402 61 255 0.0 3.0 0.00 0.00 0.00 23 1025.3
20181114040402 62 249 0.0 2.0 0.00 0.00 0.00 23 1025.3
20181114035402 62 249 0.0 1.0 0.00 0.00 0.00 23 1025.3
20181114033402 62 249 2.0 2.0 0.00 0.00 0.00 24 1025.3
20181114032401 62 249 0.0 2.0 0.00 0.00 0.00 26 1025.3
20181114031401 61 249 0.0 1.0 0.00 0.00 0.00 29 1025.5
20181114024401 61 236 3.0 4.0 0.00 0.00 0.00 31 1025.7
20181114023401 61 221 2.0 3.0 0.00 0.00 0.00 31 1025.7
20181114022401 61 221 2.0 3.0 0.00 0.00 0.00 32 1025.8
20181114021401 61 221 3.0 3.0 0.00 0.00 0.00 31 1025.7
20181114020401 62 221 1.0 3.0 0.00 0.00 0.00 29 1025.7
20181114015401 62 221 3.0 3.0 0.00 0.00 0.00 29 1025.8
20181114014401 62 221 0.0 0.0 0.00 0.00 0.00 27 1025.8
20181114012401 63 221 0.0 2.0 0.00 0.00 0.00 26 1025.8
20181114010401 64 221 0.0 1.0 0.00 0.00 0.00 25 1025.6
20181114004401 64 221 0.0 1.0 0.00 0.00 0.00 22 1025.6
20181114003400 64 221 0.0 0.0 0.00 0.00 0.00 22 1025.6
20181114002400 65 221 0.0 1.0 0.00 0.00 0.00 23 1025.6
20181114001400 66 221 0.0 1.0 0.00 0.00 0.00 24 1025.6
20181113234400 67 236 0.0 1.0 0.00 0.00 0.00 24 1025.5
20181113233400 67 236 0.0 0.0 0.00 0.00 0.00 22 1025.5
20181113232400 67 236 0.0 1.0 0.00 0.00 0.00 22 1025.5
20181113225400 68 236 0.0 0.0 0.00 0.00 0.00 20 1025.7
20181113224400 68 236 0.0 3.0 0.00 0.00 0.00 21 1025.9
20181113220400 68 111 0.0 1.0 0.00 0.00 0.00 21 1025.7
20181113212400 68 110 0.0 3.0 0.00 0.00 0.00 18 1025.9
20181113210359 68 110 0.0 1.0 0.00 0.00 0.00 17 1025.8
20181113205359 69 111 0.0 4.0 0.00 0.00 0.00 15 1025.9
20181113204400 70 95 0.0 5.0 0.00 0.00 0.00 17 1026.1
20181113203359 70 119 3.0 3.0 0.00 0.00 0.00 19 1026.1
20181113202359 70 104 0.0 3.0 0.00 0.00 0.00 18 1026.5
20181113201359 69 124 0.0 4.0 0.00 0.00 0.00 16 1026.6
20181113200359 69 101 3.0 3.0 0.00 0.00 0.00 18 1026.6
20181113195359 69 181 0.0 1.0 0.00 0.00 0.00 18 1026.7
20181113194359 70 192 1.0 2.0 0.00 0.00 0.00 15 1026.9
20181113191359 68 284 0.0 3.0 0.00 0.00 0.00 17 1027.2
20181113184359 66 284 0.0 3.0 0.00 0.00 0.00 20 1027.3
20181113180359 66 284 0.0 0.0 0.00 0.00 0.00 19 1027.3
20181113175358 66 284 0.0 1.0 0.00 0.00 0.00 21 1027.4
20181113174359 65 284 0.0 3.0 0.00 0.00 0.00 21 1027.4
20181113173358 64 284 0.0 3.0 0.00 0.00 0.00 21 1027.4
20181113172358 64 284 3.0 3.0 0.00 0.00 0.00 21 1027.5
20181113165358 62 284 0.0 0.0 0.00 0.00 0.00 19 1027.4
20181113164358 62 284 0.0 0.0 0.00 0.00 0.00 21 1027.1
20181113162358 61 284 0.0 0.0 0.00 0.00 0.00 20 1027.0
20181113161358 61 284 0.0 2.0 0.00 0.00 0.00 21 1026.8
20181113160358 60 284 2.0 2.0 0.00 0.00 0.00 20 1026.8
20181113155358 60 284 2.0 3.0 0.00 0.00 0.00 19 1026.6
20181113154358 60 284 0.0 3.0 0.00 0.00 0.00 19 1026.5
20181113152358 59 284 0.0 0.0 0.00 0.00 0.00 19 1026.4
20181113151358 60 284 0.0 0.0 0.00 0.00 0.00 19 1026.3
20181113150358 60 284 0.0 0.0 0.00 0.00 0.00 19 1026.3
20181113144358 59 284 0.0 0.0 0.00 0.00 0.00 20 1026.0
20181113141358 59 284 0.0 0.0 0.00 0.00 0.00 19 1026.0
20181113135358 60 284 0.0 0.0 0.00 0.00 0.00 18 1026.0
20181113134358 60 284 0.0 3.0 0.00 0.00 0.00 18 1025.9
20181113133358 60 284 0.0 0.0 0.00 0.00 0.00 18 1025.9
20181113131358 60 284 0.0 1.0 0.00 0.00 0.00 18 1025.5
20181113124358 62 284 0.0 0.0 0.00 0.00 0.00 16 1025.5
20181113122357 63 284 0.0 2.0 0.00 0.00 0.00 15 1025.5
20181113120357 62 284 0.0 0.0 0.00 0.00 0.00 16 1025.3
20181113114357 61 284 1.0 3.0 0.00 0.00 0.00 18 1025.5
20181113111357 60 279 3.0 4.0 0.00 0.00 0.00 20 1025.5
20181113110357 60 275 3.0 4.0 0.00 0.00 0.00 20 1025.5
20181113105357 60 288 3.0 4.0 0.00 0.00 0.00 20 1025.4
20181113104357 60 294 3.0 3.0 0.00 0.00 0.00 20 1025.6
20181113103357 60 294 3.0 3.0 0.00 0.00 0.00 20 1025.6
20181113101357 60 295 3.0 3.0 0.00 0.00 0.00 20 1025.4
20181113095356 60 295 3.0 3.0 0.00 0.00 0.00 20 1025.4
20181113094356 60 294 2.0 4.0 0.00 0.00 0.00 20 1025.5
20181113092356 60 306 3.0 3.0 0.00 0.00 0.00 20 1025.3
20181113085356 60 307 0.0 0.0 0.00 0.00 0.00 19 1025.2
20181113082356 59 307 2.0 2.0 0.00 0.00 0.00 20 1025.0
20181113081356 60 307 0.0 3.0 0.00 0.00 0.00 20 1025.2
20181113080356 60 307 2.0 3.0 0.00 0.00 0.00 22 1025.2
20181113074356 60 315 3.0 3.0 0.00 0.00 0.00 20 1025.2
20181113072356 59 80 0.0 0.0 0.00 0.00 0.00 22 1025.1
20181113070356 59 80 0.0 0.0 0.00 0.00 0.00 22 1025.4
20181113065356 59 81 0.0 0.0 0.00 0.00 0.00 22 1025.4
20181113064356 59 81 0.0 3.0 0.00 0.00 0.00 22 1025.5